| time (UTC) | temp F | wind direction | speed knots | gust knots | rain 1hr in | rain 24hr in | rain mn in | humidity % | barometer mb |
| 20260506044605 | 56 | 360 | 0.9 | 3.5 | 0.00 | 0.00 | 0.00 | 74 | 1008.3 |
| 20260506043054 | 56 | 360 | 0.0 | 4.3 | 0.00 | 0.00 | 0.00 | 74 | 1008.3 |
| 20260506041552 | 56 | 0 | 0.0 | 1.7 | 0.00 | 0.00 | 0.00 | 73 | 1008.2 |
| 20260506040055 | 56 | 360 | 0.0 | 3.5 | 0.00 | 0.00 | 0.00 | 73 | 1008.3 |
| 20260506034554 | 56 | 360 | 0.0 | 2.6 | 0.00 | 0.00 | 0.00 | 72 | 1008.2 |
| 20260506033052 | 56 | 360 | 0.9 | 3.5 | 0.00 | 0.00 | 0.00 | 72 | 1008.1 |
| 20260506031557 | 57 | 360 | 0.9 | 4.3 | 0.00 | 0.00 | 0.00 | 71 | 1008.0 |
| 20260506030058 | 58 | 0 | 0.0 | 1.7 | 0.00 | 0.00 | 0.00 | 70 | 1007.9 |
| 20260506024600 | 58 | 0 | 0.0 | 2.6 | 0.00 | 0.00 | 0.00 | 69 | 1008.2 |
| 20260506023100 | 59 | 360 | 0.0 | 1.7 | 0.00 | 0.00 | 0.00 | 67 | 1008.2 |
| 20260506021559 | 60 | 0 | 0.9 | 3.5 | 0.00 | 0.00 | 0.00 | 66 | 1008.3 |
| 20260506020053 | 61 | 360 | 0.9 | 2.6 | 0.00 | 0.00 | 0.00 | 65 | 1008.3 |
| 20260506014558 | 62 | 0 | 0.0 | 4.3 | 0.00 | 0.00 | 0.00 | 64 | 1008.4 |
| 20260506013055 | 62 | 0 | 0.9 | 2.6 | 0.00 | 0.00 | 0.00 | 64 | 1008.3 |
| 20260506011556 | 62 | 0 | 0.0 | 1.7 | 0.00 | 0.00 | 0.00 | 63 | 1008.2 |
| 20260506010056 | 63 | 360 | 0.0 | 3.5 | 0.00 | 0.00 | 0.00 | 63 | 1008.0 |
| 20260506004554 | 64 | 360 | 0.9 | 4.3 | 0.00 | 0.00 | 0.00 | 62 | 1007.9 |
| 20260506003054 | 64 | 360 | 2.6 | 5.2 | 0.00 | 0.00 | 0.00 | 62 | 1007.8 |
| 20260506001551 | 64 | 0 | 0.9 | 3.5 | 0.00 | 0.00 | 0.00 | 61 | 1007.1 |
| 20260506000055 | 65 | 360 | 0.9 | 5.2 | 0.00 | 0.00 | 0.00 | 60 | 1006.7 |
| 20260505234555 | 65 | 0 | 0.9 | 2.6 | 0.00 | 0.00 | 0.00 | 60 | 1006.1 |
| 20260505233053 | 65 | 360 | 0.0 | 7.0 | 0.00 | 0.00 | 0.00 | 61 | 1006.2 |
| 20260505231602 | 64 | 360 | 1.7 | 10.4 | 0.00 | 0.00 | 0.00 | 61 | 1006.3 |
| 20260505230059 | 63 | 360 | 4.3 | 13.9 | 0.00 | 0.00 | 0.00 | 63 | 1006.6 |
| 20260505224554 | 63 | 360 | 7.0 | 15.6 | 0.00 | 0.00 | 0.00 | 61 | 1004.8 |
| 20260505223056 | 63 | 360 | 5.2 | 16.5 | 0.00 | 0.00 | 0.00 | 61 | 1004.6 |
| 20260505221554 | 63 | 360 | 6.1 | 16.5 | 0.00 | 0.00 | 0.00 | 61 | 1004.6 |
| 20260505220055 | 64 | 360 | 7.0 | 17.4 | 0.00 | 0.00 | 0.00 | 61 | 1004.4 |
| 20260505214556 | 63 | 360 | 7.0 | 15.6 | 0.00 | 0.00 | 0.00 | 62 | 1004.4 |
| 20260505213104 | 63 | 360 | 7.8 | 16.5 | 0.00 | 0.00 | 0.00 | 62 | 1004.2 |
| 20260505211557 | 63 | 360 | 4.3 | 15.6 | 0.00 | 0.00 | 0.00 | 62 | 1004.2 |
| 20260505210055 | 64 | 360 | 4.3 | 14.8 | 0.00 | 0.00 | 0.00 | 60 | 1004.2 |
| 20260505204554 | 65 | 360 | 6.1 | 16.5 | 0.00 | 0.00 | 0.00 | 59 | 1004.0 |
| 20260505203100 | 66 | 360 | 7.8 | 18.2 | 0.00 | 0.00 | 0.00 | 59 | 1004.2 |
| 20260505201552 | 66 | 360 | 6.1 | 12.2 | 0.00 | 0.00 | 0.00 | 59 | 1004.2 |
| 20260505200049 | 66 | 360 | 4.3 | 14.8 | 0.00 | 0.00 | 0.00 | 59 | 1004.3 |
| 20260505194551 | 66 | 360 | 7.0 | 16.5 | 0.00 | 0.00 | 0.00 | 60 | 1004.6 |
| 20260505193055 | 66 | 360 | 7.8 | 15.6 | 0.00 | 0.00 | 0.00 | 59 | 1004.7 |
| 20260505191610 | 66 | 360 | 6.1 | 17.4 | 0.00 | 0.00 | 0.00 | 58 | 1004.9 |
| 20260505190052 | 68 | 190 | 7.0 | 19.1 | 0.00 | 0.00 | 0.00 | 57 | 1005.1 |
| 20260505184555 | 68 | 210 | 10.4 | 18.2 | 0.00 | 0.00 | 0.00 | 55 | 1005.2 |
| 20260505183054 | 68 | 360 | 3.5 | 16.5 | 0.00 | 0.00 | 0.00 | 56 | 1005.3 |
| 20260505181556 | 68 | 360 | 3.5 | 13.0 | 0.00 | 0.00 | 0.00 | 56 | 1005.4 |
| 20260505180104 | 68 | 360 | 5.2 | 11.3 | 0.00 | 0.00 | 0.00 | 57 | 1005.7 |
| 20260505174604 | 67 | 360 | 7.0 | 14.8 | 0.00 | 0.00 | 0.00 | 57 | 1005.7 |
| 20260505173052 | 69 | 360 | 5.2 | 14.8 | 0.00 | 0.00 | 0.00 | 55 | 1006.0 |
| 20260505171552 | 69 | 181 | 7.0 | 14.8 | 0.00 | 0.00 | 0.00 | 54 | 1006.1 |
| 20260505170052 | 70 | 360 | 7.8 | 13.0 | 0.00 | 0.00 | 0.00 | 53 | 1006.2 |
| 20260505164552 | 70 | 360 | 2.6 | 9.6 | 0.00 | 0.00 | 0.00 | 54 | 1006.6 |
| 20260505163052 | 69 | 360 | 1.7 | 8.7 | 0.00 | 0.00 | 0.00 | 55 | 1006.9 |
| 20260505161555 | 69 | 360 | 3.5 | 8.7 | 0.00 | 0.00 | 0.00 | 54 | 1007.3 |
| 20260505153050 | 68 | 360 | 2.6 | 5.2 | 0.00 | 0.00 | 0.00 | 56 | 1007.7 |
| 20260505151558 | 65 | 360 | 1.7 | 7.0 | 0.00 | 0.00 | 0.00 | 60 | 1008.1 |
| 20260505124553 | 59 | 178 | 0.9 | 5.2 | 0.00 | 0.00 | 0.00 | 66 | 1007.8 |
| 20260505123101 | 57 | 180 | 2.6 | 6.1 | 0.00 | 0.00 | 0.00 | 68 | 1007.9 |
| 20260505121556 | 55 | 0 | 1.7 | 7.8 | 0.00 | 0.00 | 0.00 | 69 | 1007.9 |
| 20260505120054 | 54 | 360 | 1.7 | 7.0 | 0.00 | 0.00 | 0.00 | 71 | 1008.0 |
| 20260505114555 | 53 | 360 | 1.7 | 5.2 | 0.00 | 0.00 | 0.00 | 72 | 1008.4 |
| 20260505113055 | 52 | 360 | 2.6 | 7.0 | 0.00 | 0.00 | 0.00 | 74 | 1008.7 |
| 20260505111555 | 51 | 360 | 0.0 | 5.2 | 0.00 | 0.00 | 0.00 | 75 | 1008.5 |
| 20260505101609 | 49 | 360 | 0.0 | 1.7 | 0.00 | 0.00 | 0.00 | 76 | 1008.3 |
| 20260505100105 | 49 | 0 | 0.0 | 0.0 | 0.00 | 0.00 | 0.00 | 75 | 1008.2 |
| 20260505094556 | 49 | 0 | 0.0 | 0.9 | 0.00 | 0.00 | 0.00 | 74 | 1008.3 |
| 20260505093104 | 50 | 0 | 0.0 | 1.7 | 0.00 | 0.00 | 0.00 | 73 | 1008.2 |
| 20260505091555 | 50 | 0 | 0.0 | 2.6 | 0.00 | 0.00 | 0.00 | 72 | 1008.3 |
| 20260505090108 | 51 | 0 | 0.0 | 2.6 | 0.00 | 0.00 | 0.00 | 69 | 1008.3 |
| 20260505084605 | 53 | 360 | 0.9 | 3.5 | 0.00 | 0.00 | 0.00 | 66 | 1008.6 |
| 20260505083053 | 53 | 360 | 0.9 | 2.6 | 0.00 | 0.00 | 0.00 | 64 | 1008.4 |
| 20260505081609 | 54 | 360 | 0.0 | 1.7 | 0.00 | 0.00 | 0.00 | 63 | 1008.5 |
| 20260505074557 | 54 | 360 | 0.9 | 3.5 | 0.00 | 0.00 | 0.00 | 61 | 1008.6 |
| 20260505073100 | 55 | 360 | 1.7 | 7.0 | 0.00 | 0.00 | 0.00 | 61 | 1008.6 |
| 20260505071556 | 55 | 360 | 0.9 | 5.2 | 0.00 | 0.00 | 0.00 | 60 | 1008.6 |
| 20260505070057 | 56 | 360 | 1.7 | 9.6 | 0.00 | 0.00 | 0.00 | 59 | 1008.4 |
| 20260505064550 | 56 | 360 | 2.6 | 7.0 | 0.00 | 0.00 | 0.00 | 58 | 1008.4 |
| 20260505063109 | 56 | 360 | 1.7 | 4.3 | 0.00 | 0.00 | 0.00 | 58 | 1008.3 |
| 20260505061552 | 57 | 360 | 1.7 | 8.7 | 0.00 | 0.00 | 0.00 | 57 | 1008.4 |
| 20260505060054 | 57 | 360 | 1.7 | 9.6 | 0.00 | 0.00 | 0.00 | 56 | 1008.5 |
| 20260505054552 | 58 | 360 | 1.7 | 8.7 | 0.00 | 0.00 | 0.00 | 55 | 1008.5 |
| 20260505053051 | 58 | 360 | 2.6 | 7.0 | 0.00 | 0.00 | 0.00 | 55 | 1008.4 |
| 20260505051556 | 58 | 360 | 1.7 | 5.2 | 0.00 | 0.00 | 0.00 | 54 | 1008.4 |